MOLNIYA 2-10

Last updated on Jan. 26, 2021, 8:12 a.m. UTC

1 07376U 74056A   21025.27658565 -.00000981  00000-0  00000-0 0  9998
2 07376  63.6305 146.1521 6674246 290.7517  12.7390  2.01148552340146
UTC
Height (km)
Latitude
Longitude
Inclination
Orbital Period
UTC large
Height (km)
Speed (km/s)
/
Latitude / Longitude
Inclination (degrees)
Orbital Period (minutes)
Azimuth
Elevation
Range (km)
Doppler Factor
iOS Compass Heading
iOS Angle

Next 30 passes for location: Hong Kong

Rise time Rise Azimuth (degrees) Set time Set Azimuth (degrees) Duration Max altitude (degrees)

No matching passes for this satellites